This is the latest recevied weather packets stored in our database for station/object IU3NMQ-10. If no packets are shown the sender has not sent any weather packets the latest 10 day(s).
| Time | Temp. | Humidity | Pressure | Rain* | Wind** | Luminosity | Snow |
|---|---|---|---|---|---|---|---|
| 1777637453 | 26.67° C | 23% | 1022.7 hPa | - | - | - | - |
| 1777636553 | 26.67° C | 25% | 1022.6 hPa | - | - | - | - |
| 1777635653 | 26.11° C | 24% | 1022.8 hPa | - | - | - | - |
| 1777634752 | 25.56° C | 25% | 1023 hPa | - | - | - | - |
| 1777633852 | 26.11° C | 25% | 1023.2 hPa | - | - | - | - |
| 1777632990 | 26.11° C | 25% | 1023.4 hPa | - | - | - | - |
| 1777632952 | 26.11° C | 25% | 1023.4 hPa | - | - | - | - |
| 1777632052 | 25.56° C | 25% | 1023.7 hPa | - | - | - | - |
| 1777631152 | 25° C | 26% | 1023.9 hPa | - | - | - | - |
| 1777630252 | 25° C | 26% | 1023.9 hPa | - | - | - | - |
| 1777629352 | 24.44° C | 28% | 1023.9 hPa | - | - | - | - |
| 1777628452 | 23.89° C | 27% | 1024.1 hPa | - | - | - | - |
| 1777627551 | 23.33° C | 30% | 1024.2 hPa | - | - | - | - |
| 1777626655 | 22.78° C | 29% | 1024.4 hPa | - | - | - | - |
| 1777625751 | 22.22° C | 31% | 1024.5 hPa | - | - | - | - |
| 1777624851 | 21.67° C | 31% | 1024.7 hPa | - | - | - | - |
| 1777623951 | 20° C | 30% | 1024.6 hPa | - | - | - | - |
| 1777623051 | 20° C | 31% | 1024.6 hPa | - | - | - | - |
| 1777622147 | 19.44° C | 33% | 1024.6 hPa | - | - | - | - |
| 1777621247 | 18.89° C | 33% | 1024.6 hPa | - | - | - | - |
| 1777620399 | 18.33° C | 35% | 1024.7 hPa | - | - | - | - |
| 1777620347 | 18.33° C | 35% | 1024.7 hPa | - | - | - | - |
| 1777619447 | 17.78° C | 36% | 1024.6 hPa | - | - | - | - |
| 1777618546 | 17.22° C | 39% | 1024.6 hPa | - | - | - | - |
| 1777617646 | 16.67° C | 41% | 1024.7 hPa | - | - | - | - |
* Rain since midnight (hover to see other rain measurements)
** Current wind speed in m/s (hover to see current wind gust speed)